Time,TemperatureF,DewpointF,PressureIn,WindDirection,WindDirectionDegrees,WindSpeedMPH,WindSpeedGustMPH,Humidity,HourlyPrecipIn,Conditions,Clouds,dailyrainin,SoftwareType,DateUTC
2013-04-17 00:02:00,73.3,72.0,29.84,SE,143,4.0,6.0,96,0.00,,,0.00,weatherlink.com 1.10,2013-04-17 05:02:00,
2013-04-17 00:17:00,73.4,72.0,29.84,ESE,121,5.0,8.0,96,0.00,,,0.00,weatherlink.com 1.10,2013-04-17 05:17:00,
2013-04-17 00:32:00,73.5,72.0,29.84,ESE,106,6.0,10.0,96,0.00,,,0.00,weatherlink.com 1.10,2013-04-17 05:32:00,
2013-04-17 00:47:00,73.6,72.0,29.84,SE,141,9.0,10.0,96,0.00,,,0.00,weatherlink.com 1.10,2013-04-17 05:47:00,
2013-04-17 01:02:00,73.6,72.0,29.83,SE,132,3.0,11.0,96,0.01,,,0.01,weatherlink.com 1.10,2013-04-17 06:02:00,
2013-04-17 01:17:00,73.6,72.0,29.83,SSE,152,8.0,13.0,96,0.01,,,0.01,weatherlink.com 1.10,2013-04-17 06:17:00,
2013-04-17 01:32:00,73.6,72.0,29.83,SE,139,3.0,12.0,96,0.01,,,0.01,weatherlink.com 1.10,2013-04-17 06:32:00,
2013-04-17 01:47:00,73.5,72.0,29.82,SE,131,4.0,12.0,96,0.01,,,0.01,weatherlink.com 1.10,2013-04-17 06:47:00,
2013-04-17 02:02:00,73.6,72.0,29.82,SE,128,6.0,13.0,96,0.00,,,0.01,weatherlink.com 1.10,2013-04-17 07:02:00,
2013-04-17 02:17:00,73.6,72.0,29.81,SE,125,4.0,13.0,96,0.00,,,0.01,weatherlink.com 1.10,2013-04-17 07:17:00,
2013-04-17 02:32:00,73.6,72.0,29.82,SE,139,3.0,12.0,96,0.00,,,0.01,weatherlink.com 1.10,2013-04-17 07:32:00,
2013-04-17 02:47:00,73.6,72.0,29.81,SE,131,6.0,13.0,96,0.00,,,0.01,weatherlink.com 1.10,2013-04-17 07:47:00,
2013-04-17 03:02:00,73.6,72.0,29.80,ESE,115,5.0,12.0,96,0.00,,,0.01,weatherlink.com 1.10,2013-04-17 08:02:00,
2013-04-17 03:17:00,73.6,72.0,29.80,SE,143,3.0,13.0,96,0.00,,,0.01,weatherlink.com 1.10,2013-04-17 08:17:00,
2013-04-17 03:32:00,73.5,72.0,29.80,SE,141,6.0,15.0,96,0.00,,,0.01,weatherlink.com 1.10,2013-04-17 08:32:00,
2013-04-17 03:47:00,73.6,72.0,29.80,SSE,156,7.0,17.0,96,0.00,,,0.01,weatherlink.com 1.10,2013-04-17 08:47:00,
2013-04-17 04:02:00,73.6,72.0,29.80,ESE,114,5.0,13.0,95,0.00,,,0.01,weatherlink.com 1.10,2013-04-17 09:02:00,
2013-04-17 04:17:00,73.7,72.0,29.80,ESE,117,8.0,14.0,95,0.00,,,0.01,weatherlink.com 1.10,2013-04-17 09:17:00,
2013-04-17 04:32:00,73.7,72.0,29.80,SE,139,3.0,13.0,94,0.00,,,0.01,weatherlink.com 1.10,2013-04-17 09:32:00,
2013-04-17 04:47:00,73.6,72.0,29.80,SE,135,8.0,14.0,94,0.00,,,0.01,weatherlink.com 1.10,2013-04-17 09:47:00,
2013-04-17 05:02:00,73.5,72.0,29.80,ESE,107,5.0,10.0,94,0.00,,,0.01,weatherlink.com 1.10,2013-04-17 10:02:00,
2013-04-17 05:17:00,73.5,72.0,29.80,ESE,117,4.0,10.0,94,0.00,,,0.01,weatherlink.com 1.10,2013-04-17 10:17:00,
2013-04-17 05:33:00,73.3,72.0,29.80,SE,143,2.0,10.0,94,0.00,,,0.01,weatherlink.com 1.10,2013-04-17 10:33:00,
2013-04-17 05:48:00,73.3,72.0,29.80,ESE,111,5.0,12.0,94,0.00,,,0.01,weatherlink.com 1.10,2013-04-17 10:48:00,
2013-04-17 06:03:00,73.3,71.0,29.81,SE,141,3.0,10.0,93,0.00,,,0.01,weatherlink.com 1.10,2013-04-17 11:03:00,
2013-04-17 06:18:00,73.3,71.0,29.81,SE,128,5.0,9.0,93,0.00,,,0.01,weatherlink.com 1.10,2013-04-17 11:18:00,
2013-04-17 06:33:00,73.3,71.0,29.82,SSE,152,3.0,9.0,93,0.00,,,0.01,weatherlink.com 1.10,2013-04-17 11:33:00,
2013-04-17 06:48:00,73.2,71.0,29.82,East,98,4.0,8.0,93,0.00,,,0.01,weatherlink.com 1.10,2013-04-17 11:48:00,
2013-04-17 07:03:00,73.0,71.0,29.82,SSE,157,6.0,11.0,93,0.00,,,0.01,weatherlink.com 1.10,2013-04-17 12:03:00,
2013-04-17 07:18:00,73.0,71.0,29.82,SE,124,2.0,10.0,92,0.00,,,0.01,weatherlink.com 1.10,2013-04-17 12:18:00,
2013-04-17 07:33:00,72.9,71.0,29.82,SE,134,5.0,7.0,93,0.00,,,0.01,weatherlink.com 1.10,2013-04-17 12:33:00,
2013-04-17 07:48:00,73.0,71.0,29.82,SE,132,3.0,9.0,92,0.00,,,0.01,weatherlink.com 1.10,2013-04-17 12:48:00,
2013-04-17 08:03:00,73.0,71.0,29.82,ENE,75,3.0,9.0,92,0.00,,,0.01,weatherlink.com 1.10,2013-04-17 13:03:00,
2013-04-17 08:18:00,73.2,71.0,29.82,East,92,8.0,8.0,92,0.00,,,0.01,weatherlink.com 1.10,2013-04-17 13:18:00,
2013-04-17 08:33:00,73.4,71.0,29.82,SE,131,4.0,9.0,92,0.00,,,0.01,weatherlink.com 1.10,2013-04-17 13:33:00,
2013-04-17 08:48:00,73.6,71.0,29.82,ESE,104,4.0,8.0,91,0.00,,,0.01,weatherlink.com 1.10,2013-04-17 13:48:00,
2013-04-17 09:03:00,73.9,71.0,29.82,SSE,152,6.0,10.0,91,0.00,,,0.01,weatherlink.com 1.10,2013-04-17 14:03:00,
2013-04-17 09:18:00,74.2,71.0,29.82,SE,139,6.0,10.0,90,0.00,,,0.01,weatherlink.com 1.10,2013-04-17 14:18:00,
2013-04-17 09:33:00,74.6,71.0,29.81,SE,141,4.0,10.0,89,0.00,,,0.01,weatherlink.com 1.10,2013-04-17 14:33:00,
2013-04-17 09:48:00,75.2,72.0,29.81,SE,132,6.0,9.0,88,0.00,,,0.01,weatherlink.com 1.10,2013-04-17 14:48:00,
2013-04-17 10:03:00,75.7,71.0,29.81,SSE,149,4.0,10.0,86,0.00,,,0.01,weatherlink.com 1.10,2013-04-17 15:03:00,
2013-04-17 10:18:00,76.2,71.0,29.81,SE,131,3.0,10.0,85,0.00,,,0.01,weatherlink.com 1.10,2013-04-17 15:18:00,
2013-04-17 10:33:00,76.5,71.0,29.81,SSW,206,4.0,13.0,84,0.00,,,0.01,weatherlink.com 1.10,2013-04-17 15:33:00,
2013-04-17 10:48:00,76.9,71.0,29.81,South,185,4.0,11.0,83,0.00,,,0.01,weatherlink.com 1.10,2013-04-17 15:48:00,
2013-04-17 11:03:00,77.1,71.0,29.80,South,174,4.0,13.0,81,0.00,,,0.01,weatherlink.com 1.10,2013-04-17 16:03:00,
2013-04-17 11:18:00,77.7,71.0,29.79,SE,143,8.0,17.0,79,0.00,,,0.01,weatherlink.com 1.10,2013-04-17 16:18:00,
2013-04-17 11:33:00,79.1,72.0,29.79,SSE,151,9.0,14.0,78,0.00,,,0.01,weatherlink.com 1.10,2013-04-17 16:33:00,
2013-04-17 11:48:00,79.5,71.0,29.79,East,98,10.0,17.0,76,0.00,,,0.01,weatherlink.com 1.10,2013-04-17 16:48:00,
2013-04-17 12:03:00,79.5,71.0,29.78,SSE,156,4.0,12.0,76,0.00,,,0.01,weatherlink.com 1.10,2013-04-17 17:03:00,
2013-04-17 12:18:00,79.8,72.0,29.77,SE,132,9.0,13.0,76,0.00,,,0.01,weatherlink.com 1.10,2013-04-17 17:18:00,
2013-04-17 12:33:00,79.7,71.0,29.77,SSE,148,5.0,14.0,75,0.00,,,0.01,weatherlink.com 1.10,2013-04-17 17:33:00,
2013-04-17 12:48:00,79.3,72.0,29.76,SE,145,10.0,13.0,77,0.00,,,0.01,weatherlink.com 1.10,2013-04-17 17:48:00,
2013-04-17 13:03:00,79.2,71.0,29.75,ESE,114,13.0,19.0,77,0.00,,,0.01,weatherlink.com 1.10,2013-04-17 18:03:00,
2013-04-17 13:18:00,78.4,71.0,29.75,SE,124,5.0,14.0,79,0.00,,,0.01,weatherlink.com 1.10,2013-04-17 18:18:00,
2013-04-17 13:33:00,78.4,72.0,29.75,ESE,121,7.0,15.0,80,0.00,,,0.01,weatherlink.com 1.10,2013-04-17 18:33:00,
2013-04-17 13:48:00,78.4,72.0,29.74,SSE,147,6.0,11.0,81,0.00,,,0.01,weatherlink.com 1.10,2013-04-17 18:48:00,
2013-04-17 14:03:00,78.2,72.0,29.74,SE,128,6.0,13.0,81,0.00,,,0.01,weatherlink.com 1.10,2013-04-17 19:03:00,
2013-04-17 14:19:00,77.9,72.0,29.73,East,96,9.0,14.0,82,0.00,,,0.01,weatherlink.com 1.10,2013-04-17 19:19:00,
2013-04-17 14:34:00,77.1,72.0,29.73,ESE,107,5.0,11.0,84,0.00,,,0.01,weatherlink.com 1.10,2013-04-17 19:34:00,
2013-04-17 14:49:00,76.6,72.0,29.72,SSE,147,8.0,13.0,86,0.00,,,0.01,weatherlink.com 1.10,2013-04-17 19:49:00,
2013-04-17 15:04:00,76.6,73.0,29.70,SE,124,5.0,14.0,88,0.00,,,0.01,weatherlink.com 1.10,2013-04-17 20:04:00,
2013-04-17 15:19:00,77.0,72.0,29.69,SE,139,5.0,13.0,85,0.00,,,0.01,weatherlink.com 1.10,2013-04-17 20:19:00,
2013-04-17 15:34:00,76.3,72.0,29.69,SE,129,4.0,13.0,87,0.00,,,0.01,weatherlink.com 1.10,2013-04-17 20:34:00,
2013-04-17 15:49:00,76.3,72.0,29.68,SE,139,6.0,13.0,87,0.00,,,0.01,weatherlink.com 1.10,2013-04-17 20:49:00,
2013-04-17 16:04:00,76.0,73.0,29.67,SE,128,6.0,12.0,89,0.00,,,0.01,weatherlink.com 1.10,2013-04-17 21:04:00,
2013-04-17 16:19:00,76.4,73.0,29.66,ESE,105,10.0,14.0,88,0.00,,,0.01,weatherlink.com 1.10,2013-04-17 21:19:00,
2013-04-17 16:34:00,77.0,73.0,29.66,East,94,7.0,15.0,86,0.00,,,0.01,weatherlink.com 1.10,2013-04-17 21:34:00,
2013-04-17 16:49:00,77.9,73.0,29.65,SSE,164,7.0,12.0,85,0.00,,,0.01,weatherlink.com 1.10,2013-04-17 21:49:00,
2013-04-17 17:04:00,78.9,73.0,29.64,ESE,122,12.0,13.0,82,0.00,,,0.01,weatherlink.com 1.10,2013-04-17 22:04:00,
2013-04-17 17:19:00,79.5,73.0,29.63,SE,131,7.0,14.0,81,0.00,,,0.01,weatherlink.com 1.10,2013-04-17 22:19:00,
2013-04-17 17:34:00,79.9,73.0,29.63,ESE,105,6.0,13.0,80,0.00,,,0.01,weatherlink.com 1.10,2013-04-17 22:34:00,
2013-04-17 17:49:00,79.8,73.0,29.62,SE,134,6.0,12.0,80,0.00,,,0.01,weatherlink.com 1.10,2013-04-17 22:49:00,
2013-04-17 18:04:00,79.5,73.0,29.63,ESE,120,6.0,13.0,80,0.00,,,0.01,weatherlink.com 1.10,2013-04-17 23:04:00,
2013-04-17 18:19:00,79.7,73.0,29.62,East,96,8.0,11.0,80,0.00,,,0.01,weatherlink.com 1.10,2013-04-17 23:19:00,
2013-04-17 18:34:00,80.1,73.0,29.62,ESE,105,6.0,11.0,79,0.00,,,0.01,weatherlink.com 1.10,2013-04-17 23:34:00,
2013-04-17 18:49:00,80.5,73.0,29.61,SE,131,5.0,12.0,78,0.00,,,0.01,weatherlink.com 1.10,2013-04-17 23:49:00,
2013-04-17 19:04:00,80.1,73.0,29.61,SSE,148,12.0,14.0,79,0.00,,,0.01,weatherlink.com 1.10,2013-04-18 00:04:00,
2013-04-17 19:19:00,79.7,73.0,29.61,SE,138,6.0,12.0,80,0.00,,,0.01,weatherlink.com 1.10,2013-04-18 00:19:00,
2013-04-17 19:34:00,79.2,73.0,29.62,SE,132,7.0,14.0,81,0.00,,,0.01,weatherlink.com 1.10,2013-04-18 00:34:00,
2013-04-17 19:49:00,78.7,73.0,29.62,ESE,109,6.0,14.0,82,0.00,,,0.01,weatherlink.com 1.10,2013-04-18 00:49:00,
2013-04-17 20:04:00,78.2,72.0,29.62,East,98,6.0,15.0,82,0.00,,,0.01,weatherlink.com 1.10,2013-04-18 01:04:00,
2013-04-17 20:20:00,77.7,72.0,29.63,SSE,153,11.0,14.0,83,0.00,,,0.01,weatherlink.com 1.10,2013-04-18 01:20:00,
2013-04-17 20:41:00,77.5,72.0,29.63,SE,134,5.0,11.0,83,0.00,,,0.01,weatherlink.com 1.10,2013-04-18 01:41:00,
2013-04-17 20:49:00,77.4,72.0,29.63,ESE,118,7.0,12.0,84,0.00,,,0.01,weatherlink.com 1.10,2013-04-18 01:49:00,
2013-04-17 21:04:00,77.2,73.0,29.63,SE,129,6.0,12.0,86,0.00,,,0.01,weatherlink.com 1.10,2013-04-18 02:04:00,
2013-04-17 21:19:00,76.9,73.0,29.64,SE,132,4.0,12.0,87,0.00,,,0.01,weatherlink.com 1.10,2013-04-18 02:19:00,
2013-04-17 21:34:00,76.7,73.0,29.65,East,89,7.0,10.0,88,0.00,,,0.01,weatherlink.com 1.10,2013-04-18 02:34:00,
2013-04-17 21:49:00,76.5,73.0,29.66,East,86,6.0,12.0,88,0.00,,,0.01,weatherlink.com 1.10,2013-04-18 02:49:00,
2013-04-17 22:04:00,76.5,73.0,29.66,SE,139,5.0,12.0,88,0.00,,,0.01,weatherlink.com 1.10,2013-04-18 03:04:00,
2013-04-17 22:19:00,76.4,73.0,29.66,East,94,4.0,14.0,88,0.00,,,0.01,weatherlink.com 1.10,2013-04-18 03:19:00,
2013-04-17 22:34:00,76.4,73.0,29.67,ESE,114,4.0,12.0,88,0.00,,,0.01,weatherlink.com 1.10,2013-04-18 03:34:00,
2013-04-17 22:49:00,76.4,73.0,29.67,SSE,164,5.0,11.0,88,0.00,,,0.01,weatherlink.com 1.10,2013-04-18 03:49:00,
2013-04-17 23:04:00,76.4,72.0,29.67,SE,128,3.0,16.0,87,0.00,,,0.01,weatherlink.com 1.10,2013-04-18 04:04:00,
2013-04-17 23:19:00,76.4,72.0,29.67,SE,146,6.0,13.0,87,0.00,,,0.01,weatherlink.com 1.10,2013-04-18 04:19:00,
2013-04-17 23:34:00,76.3,73.0,29.67,SSE,162,7.0,14.0,88,0.00,,,0.01,weatherlink.com 1.10,2013-04-18 04:34:00,
2013-04-17 23:49:00,76.0,72.0,29.67,South,188,9.0,14.0,88,0.00,,,0.01,weatherlink.com 1.10,2013-04-18 04:49:00,